Regional Weather Roundup
Issued by NWS Grand Forks, ND

Home | Current Version | Previous Version | Graphics & Text | Print | Product List | Glossary On
Versions: 1 2 3 4 5 6 7 8 9 10 11 12 13 14 15 16 17 18 19 20 21 22 23 24 25 26 27 28 29 30 31 32 33 34 35 36 37 38 39 40 41 42 43 44 45 46 47 48 49 50
000
ASUS43 KFGF 280631
RWRFGF
PRAIRIE TO PINES  WEATHER ROUNDUP
NATIONAL WEATHER SERVICE EASTERN NORTH DAKOTA/GRAND FORKS ND
100 AM CDT THU AUG 28 2014

 **SATELLITE DATA USED TO AUGMENT SKY COVER AT AUTOMATED STATIONS**
 *****  WEATHER ACROSS EASTERN NORTH DAKOTA  *****

CITY           SKY/WX    TMP DP  RH WIND       PRES   REMARKS
GRAND FORKS    FAIR      62  58  86 S7        30.03F
6HR MIN TEMP:  58; 6HR MAX TEMP:  73;

GRAND FRKS AFB FAIR      60  60  99 S8        30.04F
GRAND FRKS NWS   N/A     61 N/A N/A S5          N/A
DEVILS LAKE    MOCLDY    64  57  77 S7        30.00F
6HR MIN TEMP:  63; 6HR MAX TEMP:  72;

FARGO          CLOUDY    65  60  84 SE8       30.05F
WAHPETON ARPT  CLOUDY    63  59  88 SE7       30.06S
$$

 ***** WEATHER ACROSS CENTRAL AND WESTERN NORTH DAKOTA  *****

CITY           SKY/WX    TMP DP  RH WIND       PRES   REMARKS
BISMARCK       PTCLDY    65  60  84 CALM      30.01F
6HR MIN TEMP:  61; 6HR MAX TEMP:  76;

MINOT          FAIR      60  58  92 CALM      29.95F
6HR MIN TEMP:  58; 6HR MAX TEMP:  76;

JAMESTOWN      CLOUDY    66  60  81 S8        30.03F
6HR MIN TEMP:  65; 6HR MAX TEMP:  72;

MINOT AFB      FAIR      61  60  99 S7        29.95F
GARRISON         N/A     61  60  97 S6        29.99F
WILLISTON      PTCLDY    67  55  65 S6        29.94S
6HR MIN TEMP:  66; 6HR MAX TEMP:  82; 6HR PCP: TRACE;

DICKINSON      CLEAR     61  59  93 S10       29.99F
6HR MIN TEMP:  60; 6HR MAX TEMP:  75;

HETTINGER      FOG       55  54  96 CALM      30.02F VSB 1/4
6HR MIN TEMP:  55; 6HR MAX TEMP:  72;

$$

 *****  OTHER AIRPORT OBSERVATIONS IN OUR AREA  *****

CITY           SKY/WX    TMP DP  RH WIND       PRES   REMARKS
WALHALLA         N/A     61  61 100 S8        30.01F
GRAFTON AIRPOR FAIR      54  54 100 S6        30.03S
VALLEY CITY AR CLOUDY    66  64  94 SE7       30.04F
CANDO          FAIR      61  59  94 S8        30.01S
CAVALIER APRT  FAIR      57  55  94 S7        30.02S
GWINNER        CLOUDY    66  63  88 SE7       30.05F
SHEYENNE NWR     N/A     65  61  86 SE6       29.95S
ROLLA          FAIR      57  57 100 S9        30.00F
 ***** THE ABOVE OBSERVATIONS ARE NON NWS ARE NOT QUALITY
       CONTROLLED AND MAY MIS-REPORT RAIN FOR SNOW...
$$

  *****  WEATHER ACROSS NORTHERN MINNESOTA  *****

CITY           SKY/WX    TMP DP  RH WIND       PRES   REMARKS
FLAG ISLAND    FAIR      66  57  72 S12       30.06S
WARROAD        FAIR      55  52  88 S6        30.08S
ROSEAU         FAIR      54  48  82 SE6       30.07F
HALLOCK        FAIR      54  52  94 SE8       30.03F
THF RVR FALLS  FAIR      55  54  94 SE6       30.07F
6HR MIN TEMP:  55; 6HR MAX TEMP:  72;

BAUDETTE       FAIR      53  50  89 CALM      30.09F
6HR MIN TEMP:  51; 6HR MAX TEMP:  66;

WASKISH        FAIR      52  52 100 CALM      30.10S
CROOKSTON      FAIR      55  55 100 SE8       30.06F
$$
  *****  WEATHER ACROSS CENTRAL AND WEST MINNESOTA  *****

CITY           SKY/WX    TMP DP  RH WIND       PRES   REMARKS
FOSSTON        FAIR      57  54  88 SE6       30.09F
BEMIDJI        FAIR      57  55  94 S5        30.11F
PARK RAPIDS    FAIR      58  56  93 SE6       30.11F
6HR MIN TEMP:  58; 6HR MAX TEMP:  68;

ELBOW LAKE     MOCLDY    63  59  87 SE8       30.08S
6HR MIN TEMP:  63; 6HR MAX TEMP:  71;

WADENA         FAIR      57  55  94 SE6       30.10F
DETROIT LAKES  FAIR      61  59  94 SE9       30.10F
MOORHEAD       FAIR      64  63  94 SE5       30.06S
FERGUS FALLS   FAIR      64  57  77 SE8       30.07F
MORRIS MN      FAIR      64  61  88 SE8       30.07F
STAPLES        FAIR      57  55  94 SE3       30.12F
$$
  *****  WEATHER ELSEWHERE ACROSS MINNESOTA  *****

CITY           SKY/WX    TMP DP  RH WIND       PRES   REMARKS
DULUTH         FAIR      57  52  83 CALM      30.15R
6HR MIN TEMP:  57; 6HR MAX TEMP:  69;

INTRNTL FALLS  FAIR      45  45 100 CALM      30.11F
6HR MIN TEMP:  44; 6HR MAX TEMP:  68;

ELY            FAIR      50  46  87 CALM      30.14S
CLOQUET        FAIR      54  52  94 SW3       30.15F
WHEATON        FAIR      59  57  94 SE7       30.08S
BRAINERD       CLOUDY    58  57  97 CALM      30.14F
6HR MIN TEMP:  56; 6HR MAX TEMP:  68;

HIBBING        FAIR      47  45  93 CALM      30.14S
6HR MIN TEMP:  46; 6HR MAX TEMP:  70;

ALEXANDRIA     FAIR      62  57  83 SE9       30.12F
6HR MIN TEMP:  62; 6HR MAX TEMP:  71;

SAINT CLOUD    FAIR      61  56  83 E3        30.13S
6HR MIN TEMP:  61; 6HR MAX TEMP:  73;

MINNEAPOLIS    FAIR      65  58  78 E8        30.13F
6HR MIN TEMP:  65; 6HR MAX TEMP:  74;

$$

  *****  WEATHER ACROSS SOUTH DAKOTA  *****

CITY           SKY/WX    TMP DP  RH WIND       PRES   REMARKS
SIOUX FALLS    MOCLDY    69  65  86 SE10      30.06F
6HR MIN TEMP:  69; 6HR MAX TEMP:  71;

BROOKINGS      NOT AVBL
WATERTOWN      MOCLDY    65  62  90 SE7       30.06F
6HR MIN TEMP:  64; 6HR MAX TEMP:  72;

HURON          CLOUDY    67  64  90 SE7       30.02F
6HR MIN TEMP:  67; 6HR MAX TEMP:  74;

SISSETON         N/A     63  61  93 S6        30.05F
ABERDEEN       PTCLDY    61  61 100 SE3       30.03S
6HR MIN TEMP:  61; 6HR MAX TEMP:  71;

MITCHELL       CLOUDY    69  67  93 SE12      30.02F
PIERRE         HVY RAIN  67  67 100 S6        29.98F FOG
6HR MIN TEMP:  67; 6HR MAX TEMP:  75; 6HR PCP:  0.08;

MOBRIDGE       CLOUDY    66  64  93 SE7       29.99F
RAPID CITY     CLOUDY    64  62  93 N6        30.05R
6HR MIN TEMP:  63; 6HR MAX TEMP:  68; 6HR PCP:  0.06;

$$

  *****  SOME WEATHER IN NEARBY STATES *****

CITY           SKY/WX    TMP DP  RH WIND       PRES   REMARKS
GLASGOW MT     CLEAR     62  53  72 SE8       29.91S
6HR MIN TEMP:  61; 6HR MAX TEMP:  84;

GREAT FALLS MT CLEAR     60  48  64 S9        30.00F
6HR MIN TEMP:  60; 6HR MAX TEMP:  84;

CHEYENNE WY    MOCLDY    54  46  74 W10       30.20S
6HR MIN TEMP:  53; 6HR MAX TEMP:  61;

SCOTTSBLUFF NE CLOUDY    63  61  93 CALM      30.09S
6HR MIN TEMP:  62; 6HR MAX TEMP:  69;

OMAHA NE       LGT RAIN  72  68  87 E9        30.04F
6HR MIN TEMP:  71; 6HR MAX TEMP:  73; 6HR PCP:  0.06;

DES MOINES IA  FAIR      71  67  87 E5        30.09R
6HR MIN TEMP:  71; 6HR MAX TEMP:  75;

DAVENPORT IA   FAIR      64  61  90 NE7       30.12S
6HR MIN TEMP:  62; 6HR MAX TEMP:  73;

CHICAGO IL     FAIR      68  58  70 NE5       30.13S
6HR MIN TEMP:  68; 6HR MAX TEMP:  71;

EAU CLAIRE WI  FAIR      57  55  93 CALM      30.15S
6HR MIN TEMP:  55; 6HR MAX TEMP:  73;

LA CROSSE WI   FAIR      62  60  93 SE6       30.15R
6HR MIN TEMP:  62; 6HR MAX TEMP:  76;

$$

  *****  SOME NATIONAL WEATHER *****

CITY           SKY/WX    TMP DP  RH WIND       PRES   REMARKS
LA GUARDIA NY  FAIR      76  69  79 NE6       29.84F
6HR MIN TEMP:  76; 6HR MAX TEMP:  83; 6HR PCP: TRACE;

RALEIGH NC     FAIR      66  62  87 CALM      29.97F
6HR MIN TEMP:  63; 6HR MAX TEMP:  74;

ATLANTA GA     FAIR      73  63  70 NW5       30.05F
6HR MIN TEMP:  72; 6HR MAX TEMP:  85;

NEW ORLEANS LA MOCLDY    81  74  79 SE3       29.99S
6HR MIN TEMP:  81; 6HR MAX TEMP:  85;

OKLAHOMA CITY  MOCLDY    76  65  68 S7        30.01S
6HR MIN TEMP:  76; 6HR MAX TEMP:  92;

ALBUQUERQUE NM PTCLDY    68  53  58 N5        30.24R
6HR MIN TEMP:  65; 6HR MAX TEMP:  80;

SALT LAKE CITY PTCLDY    64  51  62 SE8       30.21S
6HR MIN TEMP:  64; 6HR MAX TEMP:  75;

LOS ANGELES CA CLEAR     73  55  53 W8        30.01S
6HR MIN TEMP:  73; 6HR MAX TEMP:  79;




USA.gov is the U.S. government's official web portal to all federal, state and local government web resources and services.